GALAXY 33 (G-33)

Last updated on Sat Aug 15 2026 00:03:02 GMT+0000 (Coordinated Universal Time)

1 54026U 22128A 26226.43516837 .00000063 00000+0 00000+0 0 9994 2 54026 0.0143 78.3449 0001772 69.4777 198.6800 1.00271847 14321
UTC large
Height (km)
Speed (km/s)
/
Latitude / Longitude
Inclination (degrees)
Orbital Period (minutes)
Azimuth
Elevation
Range (km)
Doppler Factor

Next 0 passes for location: London (51.5072 / 0.1276)

No passes found over London.
GALAXY 33 (G-33)